| time (UTC) | temp F | wind direction | speed MPH | gust MPH | rain 1hr in | rain 24hr in | rain mn in | humidity % | barometer mb |
| 20260904194830 | 79 | 80 | 0.0 | 0.0 | 0.00 | 0.14 | 0.15 | 81 | 1013.4 |
| 20260904193823 | 79 | 80 | 0.0 | 0.0 | 0.00 | 0.14 | 0.15 | 81 | 1013.3 |
| 20260904192813 | 79 | 80 | 0.0 | 4.0 | 0.00 | 0.14 | 0.15 | 81 | 1013.3 |
| 20260904190636 | 78 | 324 | 0.0 | 2.0 | 0.00 | 0.14 | 0.15 | 85 | 1013.7 |
| 20260904185621 | 78 | 80 | 0.0 | 1.0 | 0.00 | 0.14 | 0.15 | 87 | 1014.0 |
| 20260904184615 | 78 | 59 | 0.0 | 2.0 | 0.00 | 0.14 | 0.15 | 89 | 1014.1 |
| 20260904183602 | 78 | 44 | 0.0 | 1.0 | 0.00 | 0.14 | 0.15 | 91 | 1014.2 |
| 20260904182605 | 78 | 61 | 0.0 | 3.0 | 0.00 | 0.14 | 0.15 | 94 | 1014.2 |
| 20260904181603 | 77 | 292 | 0.0 | 0.0 | 0.00 | 0.14 | 0.15 | 94 | 1014.2 |
| 20260904180614 | 76 | 292 | 0.0 | 0.0 | 0.00 | 0.14 | 0.15 | 93 | 1014.1 |
| 20260904175611 | 75 | 325 | 0.0 | 2.0 | 0.00 | 0.14 | 0.15 | 93 | 1014.1 |
| 20260904174550 | 74 | 85 | 0.0 | 0.0 | 0.04 | 0.14 | 0.15 | 92 | 1014.1 |
| 20260904173537 | 74 | 84 | 0.0 | 2.0 | 0.17 | 0.14 | 0.15 | 91 | 1013.8 |
| 20260904172532 | 75 | 296 | 0.0 | 0.0 | 0.00 | 0.06 | 0.06 | 91 | 1014.5 |
| 20260904171538 | 76 | 298 | 0.0 | 0.0 | 0.04 | 0.06 | 0.06 | 91 | 1014.0 |
| 20260904170509 | 76 | 298 | 0.0 | 1.0 | 0.12 | 0.06 | 0.06 | 90 | 1013.8 |
| 20260904165435 | 77 | 299 | 0.0 | 2.0 | 0.17 | 0.02 | 0.02 | 88 | 1014.6 |
| 20260904164442 | 79 | 299 | 0.0 | 1.0 | 0.00 | 0.00 | 0.00 | 86 | 1014.8 |
| 20260904163428 | 80 | 299 | 0.0 | 0.0 | 0.00 | 0.00 | 0.00 | 84 | 1014.6 |
| 20260904162428 | 81 | 303 | 0.0 | 0.0 | 0.00 | 0.00 | 0.00 | 80 | 1014.9 |
| 20260904161437 | 81 | 303 | 0.0 | 0.0 | 0.00 | 0.00 | 0.00 | 81 | 1015.1 |
| 20260904160426 | 81 | 303 | 0.0 | 0.0 | 0.00 | 0.00 | 0.00 | 80 | 1014.5 |
| 20260904155437 | 81 | 303 | 0.0 | 0.0 | 0.00 | 0.00 | 0.00 | 80 | 1014.5 |
| 20260904153250 | 82 | 303 | 0.0 | 1.0 | 0.00 | 0.00 | 0.00 | 81 | 1014.7 |
| 20260904152217 | 82 | 302 | 0.0 | 0.0 | 0.00 | 0.00 | 0.00 | 80 | 1014.4 |
| 20260904151210 | 82 | 302 | 0.0 | 0.0 | 0.00 | 0.00 | 0.00 | 79 | 1014.3 |
| 20260904150150 | 82 | 302 | 0.0 | 0.0 | 0.00 | 0.00 | 0.00 | 80 | 1014.0 |
| 20260904145140 | 82 | 302 | 0.0 | 2.0 | 0.00 | 0.00 | 0.00 | 79 | 1013.9 |
| 20260904144130 | 82 | 303 | 0.0 | 2.0 | 0.00 | 0.00 | 0.00 | 79 | 1013.9 |
| 20260904142006 | 82 | 297 | 1.0 | 3.0 | 0.00 | 0.00 | 0.00 | 79 | 1014.1 |
| 20260904141009 | 81 | 94 | 0.0 | 0.0 | 0.00 | 0.00 | 0.00 | 83 | 1013.8 |
| 20260904135953 | 81 | 94 | 0.0 | 0.0 | 0.00 | 0.00 | 0.00 | 84 | 1013.5 |
| 20260904134922 | 80 | 94 | 0.0 | 0.0 | 0.00 | 0.00 | 0.00 | 85 | 1013.5 |
| 20260904133857 | 79 | 94 | 0.0 | 0.0 | 0.00 | 0.00 | 0.00 | 88 | 1013.4 |
| 20260904131801 | 77 | 94 | 0.0 | 0.0 | 0.00 | 0.00 | 0.00 | 92 | 1013.5 |
| 20260904130802 | 76 | 94 | 0.0 | 0.0 | 0.00 | 0.00 | 0.00 | 93 | 1013.6 |
| 20260904125816 | 75 | 94 | 0.0 | 0.0 | 0.00 | 0.00 | 0.00 | 94 | 1013.7 |
| 20260904124745 | 75 | 94 | 0.0 | 0.0 | 0.00 | 0.00 | 0.00 | 95 | 1013.8 |
| 20260904123810 | 74 | 94 | 0.0 | 0.0 | 0.00 | 0.00 | 0.00 | 95 | 1013.8 |
| 20260904122828 | 73 | 94 | 0.0 | 0.0 | 0.00 | 0.00 | 0.00 | 95 | 1013.9 |
| 20260904121754 | 73 | 94 | 0.0 | 0.0 | 0.00 | 0.00 | 0.00 | 95 | 1014.0 |
| 20260904120808 | 72 | 94 | 0.0 | 0.0 | 0.00 | 0.00 | 0.00 | 95 | 1013.8 |
| 20260904115753 | 72 | 94 | 0.0 | 0.0 | 0.00 | 0.00 | 0.00 | 95 | 1013.9 |
| 20260904114805 | 71 | 94 | 0.0 | 0.0 | 0.00 | 0.00 | 0.00 | 95 | 1013.7 |
| 20260904113736 | 71 | 94 | 0.0 | 0.0 | 0.00 | 0.00 | 0.00 | 94 | 1013.5 |
| 20260904112737 | 71 | 94 | 0.0 | 0.0 | 0.00 | 0.00 | 0.00 | 94 | 1013.2 |
| 20260904111711 | 71 | 94 | 0.0 | 0.0 | 0.00 | 0.00 | 0.00 | 94 | 1013.0 |
| 20260904110728 | 71 | 94 | 0.0 | 0.0 | 0.00 | 0.00 | 0.00 | 94 | 1013.1 |
| 20260904104526 | 71 | 94 | 0.0 | 0.0 | 0.00 | 0.00 | 0.00 | 94 | 1012.9 |
| 20260904102416 | 71 | 80 | 0.0 | 0.0 | 0.00 | 0.00 | 0.00 | 93 | 1012.6 |
| 20260904100300 | 71 | 80 | 0.0 | 0.0 | 0.00 | 0.00 | 0.00 | 93 | 1012.4 |
| 20260904095325 | 72 | 80 | 0.0 | 0.0 | 0.00 | 0.00 | 0.00 | 93 | 1012.6 |
| 20260904093152 | 72 | 80 | 0.0 | 0.0 | 0.00 | 0.00 | 0.00 | 93 | 1012.4 |
| 20260904092200 | 72 | 80 | 0.0 | 0.0 | 0.00 | 0.00 | 0.00 | 92 | 1012.4 |
| 20260904091203 | 72 | 80 | 0.0 | 0.0 | 0.00 | 0.00 | 0.00 | 92 | 1012.3 |
| 20260904090137 | 72 | 80 | 0.0 | 0.0 | 0.00 | 0.00 | 0.00 | 92 | 1012.3 |
| 20260904085134 | 72 | 80 | 0.0 | 0.0 | 0.00 | 0.00 | 0.00 | 92 | 1012.3 |
| 20260904084107 | 72 | 80 | 0.0 | 0.0 | 0.00 | 0.00 | 0.00 | 92 | 1012.3 |
| 20260904083106 | 73 | 80 | 0.0 | 0.0 | 0.00 | 0.00 | 0.00 | 92 | 1012.4 |
| 20260904082108 | 73 | 80 | 0.0 | 0.0 | 0.00 | 0.00 | 0.00 | 91 | 1012.4 |
| 20260904081059 | 73 | 80 | 0.0 | 0.0 | 0.00 | 0.00 | 0.00 | 91 | 1012.4 |
| 20260904080059 | 73 | 80 | 0.0 | 0.0 | 0.00 | 0.00 | 0.00 | 91 | 1012.5 |
| 20260904075059 | 73 | 80 | 0.0 | 0.0 | 0.00 | 0.00 | 0.00 | 91 | 1012.5 |
| 20260904074050 | 74 | 80 | 0.0 | 0.0 | 0.00 | 0.00 | 0.00 | 90 | 1012.7 |
| 20260904073058 | 74 | 80 | 0.0 | 0.0 | 0.00 | 0.00 | 0.00 | 90 | 1012.8 |
| 20260904072051 | 74 | 80 | 0.0 | 0.0 | 0.00 | 0.00 | 0.00 | 89 | 1012.8 |
| 20260904071041 | 74 | 80 | 0.0 | 0.0 | 0.00 | 0.00 | 0.00 | 89 | 1012.9 |
| 20260904070053 | 75 | 80 | 0.0 | 0.0 | 0.00 | 0.00 | 0.00 | 88 | 1013.0 |
| 20260904065059 | 75 | 80 | 0.0 | 0.0 | 0.00 | 0.00 | 0.00 | 88 | 1013.0 |
| 20260904064048 | 75 | 80 | 0.0 | 0.0 | 0.00 | 0.00 | 0.00 | 87 | 1013.0 |
| 20260904063113 | 75 | 80 | 0.0 | 0.0 | 0.00 | 0.00 | 0.00 | 87 | 1013.0 |
| 20260904062112 | 76 | 80 | 0.0 | 0.0 | 0.00 | 0.00 | 0.00 | 86 | 1013.0 |
| 20260904061038 | 76 | 80 | 0.0 | 0.0 | 0.00 | 0.00 | 0.00 | 86 | 1013.0 |
| 20260904054909 | 76 | 80 | 0.0 | 0.0 | 0.00 | 0.00 | 0.00 | 86 | 1013.2 |
| 20260904053855 | 76 | 80 | 0.0 | 0.0 | 0.00 | 0.00 | 0.00 | 85 | 1013.3 |
| 20260904052828 | 76 | 80 | 0.0 | 1.0 | 0.00 | 0.00 | 0.00 | 86 | 1013.2 |
| 20260904051821 | 75 | 79 | 0.0 | 0.0 | 0.00 | 0.00 | 0.00 | 86 | 1013.3 |
| 20260904050831 | 75 | 79 | 0.0 | 0.0 | 0.00 | 0.00 | 0.00 | 86 | 1013.4 |
| 20260904043510 | 75 | 79 | 0.0 | 0.0 | 0.00 | 0.00 | 0.00 | 87 | 1013.4 |
| 20260904042450 | 75 | 79 | 0.0 | 0.0 | 0.00 | 0.00 | 0.00 | 87 | 1013.4 |
| 20260904041447 | 75 | 79 | 0.0 | 0.0 | 0.00 | 0.00 | 0.00 | 87 | 1013.4 |
| 20260904035339 | 75 | 79 | 0.0 | 0.0 | 0.00 | 0.00 | 0.00 | 86 | 1013.3 |
| 20260904034355 | 75 | 79 | 0.0 | 0.0 | 0.00 | 0.00 | 0.00 | 85 | 1013.3 |
| 20260904033335 | 76 | 79 | 0.0 | 0.0 | 0.00 | 0.00 | 0.00 | 85 | 1013.3 |
| 20260904032314 | 76 | 79 | 0.0 | 0.0 | 0.00 | 0.00 | 0.00 | 85 | 1013.4 |
| 20260904031311 | 76 | 79 | 0.0 | 0.0 | 0.00 | 0.00 | 0.00 | 84 | 1013.4 |
| 20260904030308 | 76 | 79 | 0.0 | 0.0 | 0.00 | 0.00 | 0.00 | 83 | 1013.5 |
| 20260904025305 | 77 | 79 | 0.0 | 0.0 | 0.00 | 0.00 | 0.00 | 82 | 1013.6 |
| 20260904024323 | 77 | 79 | 0.0 | 0.0 | 0.00 | 0.00 | 0.00 | 82 | 1013.6 |
| 20260904023320 | 77 | 79 | 0.0 | 0.0 | 0.00 | 0.00 | 0.00 | 81 | 1013.7 |
| 20260904022319 | 78 | 79 | 0.0 | 0.0 | 0.00 | 0.00 | 0.00 | 80 | 1013.7 |
| 20260904021254 | 78 | 79 | 0.0 | 0.0 | 0.00 | 0.00 | 0.00 | 79 | 1013.6 |
| 20260904020310 | 78 | 79 | 0.0 | 0.0 | 0.00 | 0.00 | 0.00 | 78 | 1013.5 |
| 20260904015259 | 79 | 79 | 0.0 | 0.0 | 0.00 | 0.00 | 0.00 | 78 | 1013.5 |
| 20260904014233 | 79 | 79 | 0.0 | 0.0 | 0.00 | 0.00 | 0.00 | 77 | 1013.3 |
| 20260904012112 | 80 | 79 | 0.0 | 0.0 | 0.00 | 0.00 | 0.00 | 75 | 1013.1 |
| 20260904011137 | 80 | 79 | 0.0 | 0.0 | 0.00 | 0.00 | 0.00 | 74 | 1013.0 |
| 20260904010120 | 81 | 329 | 0.0 | 3.0 | 0.00 | 0.00 | 0.00 | 72 | 1013.3 |
| 20260904005114 | 83 | 329 | 0.0 | 4.0 | 0.00 | 0.00 | 0.00 | 71 | 1013.2 |
| 20260904004041 | 84 | 327 | 0.0 | 2.0 | 0.00 | 0.00 | 0.00 | 71 | 1013.2 |
| 20260904003020 | 85 | 237 | 0.0 | 0.0 | 0.00 | 0.00 | 0.00 | 71 | 1012.8 |
| 20260904002018 | 85 | 236 | 0.0 | 4.0 | 0.00 | 0.00 | 0.00 | 71 | 1012.6 |
| 20260904000945 | 86 | 226 | 0.0 | 0.0 | 0.00 | 0.00 | 0.00 | 70 | 1012.4 |
| 20260903235957 | 87 | 226 | 0.0 | 0.0 | 0.00 | 0.00 | 0.00 | 67 | 1012.5 |
| 20260903234959 | 88 | 226 | 0.0 | 0.0 | 0.00 | 0.00 | 0.00 | 64 | 1012.6 |
| 20260903233944 | 89 | 226 | 0.0 | 0.0 | 0.00 | 0.00 | 0.00 | 63 | 1012.6 |
| 20260903230654 | 90 | 256 | 1.0 | 2.0 | 0.00 | 0.00 | 0.00 | 59 | 1012.0 |
| 20260903225706 | 90 | 284 | 0.0 | 2.0 | 0.00 | 0.00 | 0.00 | 58 | 1012.1 |
| 20260903224700 | 91 | 284 | 0.0 | 0.0 | 0.00 | 0.00 | 0.00 | 58 | 1012.2 |
| 20260903222540 | 91 | 266 | 0.0 | 5.0 | 0.00 | 0.00 | 0.00 | 56 | 1012.2 |
| 20260903221552 | 91 | 184 | 0.0 | 1.0 | 0.00 | 0.00 | 0.00 | 57 | 1012.2 |
| 20260903220534 | 91 | 173 | 0.0 | 4.0 | 0.00 | 0.00 | 0.00 | 56 | 1012.0 |
| 20260903215459 | 92 | 265 | 0.0 | 4.0 | 0.00 | 0.00 | 0.00 | 57 | 1011.8 |
| 20260903214426 | 92 | 279 | 0.0 | 4.0 | 0.00 | 0.00 | 0.00 | 56 | 1011.9 |
| 20260903213439 | 92 | 246 | 1.0 | 6.0 | 0.00 | 0.00 | 0.00 | 55 | 1011.8 |
| 20260903212440 | 92 | 297 | 1.0 | 7.0 | 0.00 | 0.00 | 0.00 | 55 | 1011.4 |
| 20260903211414 | 92 | 252 | 0.0 | 8.0 | 0.00 | 0.00 | 0.00 | 57 | 1011.2 |
| 20260903210421 | 92 | 240 | 1.0 | 8.0 | 0.00 | 0.00 | 0.00 | 57 | 1011.3 |
| 20260903205357 | 92 | 238 | 1.0 | 5.0 | 0.00 | 0.00 | 0.00 | 57 | 1011.1 |
| 20260903204349 | 92 | 219 | 1.0 | 5.0 | 0.00 | 0.00 | 0.00 | 56 | 1010.9 |
| 20260903203357 | 92 | 198 | 0.0 | 3.0 | 0.00 | 0.00 | 0.00 | 55 | 1011.0 |
| 20260903201234 | 92 | 193 | 1.0 | 5.0 | 0.00 | 0.00 | 0.00 | 56 | 1011.3 |
| 20260903200257 | 92 | 254 | 1.0 | 5.0 | 0.00 | 0.00 | 0.00 | 56 | 1011.6 |